{"data":{"norad_id":67135,"epoch":"2026-09-20T13:35:28.192128Z","epoch_age_seconds":100403,"freshness":"FRESH","line1":"1 67135U 25301C   26263.56629852  .00001621  00000+0  24160-3 0  9990","line2":"2 67135  51.8998 268.8337 0000590  46.7242 313.3769 14.79936427 42875","mean_motion":14.79936427,"eccentricity":5.9e-5,"inclination_deg":51.8998,"raan_deg":268.8337,"arg_perigee_deg":46.7242,"mean_anomaly_deg":313.3769,"bstar":0.0002416,"rev_number":4287,"period_min":97.301476855938,"perigee_km":629.11135895923,"apogee_km":629.93826305293,"semimajor_km":7007.6618110061,"source":"CELESTRAK","updated_at":"2026-09-21T09:00:16.454087Z"}}